Location: Lombard
(41.8800°N, 88.0080°W)
Time: 14:02:42
(UTC-06:00)

Transit 4A - Pass Details

Date: 01 December 2023
Orbit: 870 x 973 km, 66.8° (Epoch: 03 March)

Event Time Altitude Azimuth Distance (km) Brightness Sun altitude
Rises 03:11:37 0° 337° (NNW) 3,623 - -41.8°
Reaches altitude 10° 03:16:26 10° 10° (N) 2,648 - -40.9°
Exits shadow 03:17:47 11° 23° (NNE) 2,544 10.4 -40.7°
Maximum altitude 03:18:22 11° 29° (NNE) 2,530 10.4 -40.6°
Drops below altitude 10° 03:20:18 10° 47° (NE) 2,621 10.7 -40.2°
Sets 03:24:58 0° 80° (E) 3,531 11.8 -39.4°
